Renton, WA

7:42 PM PDT on May 26, 2017 (GMT -0700)
Renton Municipal

Weather History for KRNT - August, 2013

Change the Weather History Date:

Monday, August 19, 2013

  Actual Average Record
Temperature  
Mean Temperature 70 °F -  
Max Temperature 80 °F 75 °F 93 °F (2016)
Min Temperature 62 °F 56 °F 53 °F (1996)
Cooling Degree Days 6    
Growing Degree Days 20 (Base 50)    
Moisture  
Dew Point 54 °F    
Average Humidity 61    
Maximum Humidity 78    
Minimum Humidity 45    
Precipitation  
Precipitation 0.00 in - - ()
Sea Level Pressure  
Sea Level Pressure 30.10 in    
Wind  
Wind Speed 4 mph (West)    
Max Wind Speed 13 mph    
Max Gust Speed 16 mph    
Visibility 10 miles    
Events      
Averages and records for this station are not official NWS values.
T = Trace of Precipitation, MM = Missing Value Source: NWS Daily Summary

Daily Weather History Graph

Daily Weather History Graph

Search for Another Location

Airport or City:

Trip Planner

Search our weather history database for the weather conditions in past years. The results will help you decide how hot, cold, wet, or windy it might be!

Date:

Astronomy

Aug. 19, 2013 Rise Set
Actual Time 6:10 AM PDT 8:13 PM PDT
Civil Twilight 5:37 AM PDT 8:46 PM PDT
Nautical Twilight 4:56 AM PDT 9:27 PM PDT
Astronomical Twilight 4:10 AM PDT 10:12 PM PDT
Moon 7:07 PM PDT (8/19) 4:34 AM PDT (8/19)
Length of Visible Light 15h 08m
Length of Day
14h 02m
Waxing Gibbous, 98% of the Moon is Illuminated
Aug 19
Waxing Gibbous
Aug 20
Full
Aug 28
Last Quarter
Sep 5
New
Sep 12
First Quarter

Hourly Weather History & Observations

Time (PDT) Temp. Dew Point Humidity Pressure Visibility Wind Dir Wind Speed Gust Speed Precip Events Conditions
12:53 AM 66.0 °F 51.1 °F 59% 30.10 in 10.0 mi NNW 4.6 mph - N/A   Overcast
1:53 AM 66.0 °F 52.0 °F 60% 30.09 in 10.0 mi Calm Calm - N/A   Scattered Clouds
2:53 AM 64.0 °F 54.0 °F 70% 30.09 in 8.0 mi SSE 3.5 mph - N/A   Overcast
3:53 AM 63.0 °F 54.0 °F 72% 30.09 in 10.0 mi Calm Calm - N/A   Scattered Clouds
4:53 AM 62.1 °F 55.0 °F 78% 30.10 in 10.0 mi SE 3.5 mph - N/A   Mostly Cloudy
5:53 AM 62.1 °F 55.0 °F 78% 30.10 in 10.0 mi Calm Calm - N/A   Overcast
6:53 AM 63.0 °F 55.9 °F 78% 30.11 in 10.0 mi Calm Calm - N/A   Overcast
7:53 AM 64.0 °F 55.9 °F 75% 30.11 in 10.0 mi South 3.5 mph - N/A   Overcast
8:53 AM 64.9 °F 55.9 °F 73% 30.12 in 10.0 mi SSW 5.8 mph - N/A   Overcast
9:53 AM 66.9 °F 55.0 °F 66% 30.13 in 10.0 mi South 6.9 mph - N/A   Overcast
10:53 AM 68.0 °F 55.0 °F 63% 30.13 in 10.0 mi Variable 4.6 mph - N/A   Overcast
11:53 AM 71.1 °F 55.9 °F 59% 30.13 in 10.0 mi Variable 5.8 mph - N/A   Partly Cloudy
12:53 PM 73.9 °F 51.1 °F 45% 30.12 in 10.0 mi SSW 9.2 mph 16.1 mph N/A   Clear
1:53 PM 75.9 °F 55.0 °F 48% 30.11 in 10.0 mi Variable 4.6 mph - N/A   Partly Cloudy
2:53 PM 77.0 °F 55.0 °F 47% 30.10 in 10.0 mi West 3.5 mph - N/A   Clear
3:53 PM 79.0 °F 55.9 °F 45% 30.09 in 10.0 mi Calm Calm - N/A   Mostly Cloudy
4:53 PM 77.0 °F 57.0 °F 50% 30.08 in 10.0 mi NW 6.9 mph - N/A   Overcast
5:53 PM 77.0 °F 55.9 °F 48% 30.07 in 10.0 mi NW 6.9 mph - N/A   Mostly Cloudy
6:53 PM 73.0 °F 57.0 °F 57% 30.07 in 10.0 mi NW 12.7 mph - N/A   Clear
7:53 PM 70.0 °F 57.0 °F 63% 30.08 in 10.0 mi NW 11.5 mph - N/A   Clear
8:53 PM 68.0 °F 53.1 °F 59% 30.09 in 10.0 mi North 3.5 mph - N/A   Clear
9:53 PM 66.9 °F 51.1 °F 57% 30.11 in 10.0 mi NNW 4.6 mph - N/A   Clear
10:53 PM 64.9 °F 51.1 °F 61% 30.13 in 10.0 mi Variable 5.8 mph - N/A   Overcast
11:53 PM 64.9 °F 50.0 °F 58% 30.13 in 10.0 mi Calm Calm - N/A   Overcast